www.pogodaiklimat.ru

Погода и климат >> Архив погоды >> Россия >> Нижегородская область >> Выкса


ПОГОДА в Выксе

  • Прогноз погоды в Выксе
  • Монитор погоды в Выксе
  • Климат города

АРХИВ ПОГОДЫ в Выксе

Время (UTC), дата Ветер
(напр.,м/с)
 
Видим.   Явления Облачность Т
(С)
Тd
(С)
f
(%)
Тe
(С)
Тes
(С)
Комфортность P
(гПа)
Po
(гПа)
Тmin
(С)
Tmax
(С)
R
(мм)
R24
(мм)
S
(см)
03 11.08 ЮЗ 1-1
{2}
10 км ясно +14.0 +12.3 89 +14 +15 1024.6 1010.9 +12.9
06 11.08 СЗ 3-5
{5}
10 км 3/0
[Ci fib]
+23.5 +14.0 55 +26 +32 жарко 1023.8 1010.6
09 11.08 З 2-8
{9}
10 км ясно +26.8 +11.0 37 +28 +40 жарко 1022.8 1009.7
12 11.08 СЗ 5-8
{8}
10 км ясно +28.1 +9.4 31 +28 +33 жарко 1022.1 1009.1
15 11.08 СЗ 4-6
{9}
10 км ясно +26.9 +8.8 32 +27 +28 жарко 1019.2 1006.2 +28.1
18 11.08 ЮЗ 2-2
{6}
10 км ясно +21.1 +10.0 49 +23 +23 комфорт 1019.4 1006.1
21 11.08 штиль 0
{3}
10 км ясно +14.6 +11.4 81 +14 +14 1019.1 1005.5
00 12.08 Ю 1-2
{2}
10 км ясно +11.9 +10.4 91 +12 +12 1018.8 1005.1
03 12.08 Ю 1-2
{3}
10 км ясно +13.1 +10.4 84 +13 +14 1018.5 1004.8 +11.8
06 12.08 З 2-4
{4}
10 км 4/0
[Ci fib]
+22.7 +12.3 52 +25 +32 комфорт 1017.2 1004.0
09 12.08 З 4-7
{9}
10 км ясно +27.0 +8.5 31 +27 +35 жарко 1015.9 1002.9
12 12.08 З 4-7
{9}
10 км 3/0
[Ci]
+28.7 +9.0 29 +28 +34 жарко 1013.9 1001.0
15 12.08 ЮЗ 4-7
{8}
10 км ясно +27.8 +10.3 34 +28 +29 жарко 1012.0 999.1 +28.7
18 12.08 ЮЗ 2-2
{7}
10 км 4/0
[Ci]
+20.6 +11.9 57 +23 +23 комфорт 1011.4 998.2
21 12.08 ЮЗ 2-3
{4}
10 км ясно +18.9 +11.9 64 +20 +20 1011.0 997.7
00 13.08 З 2-3
{4}
10 км 8/6 1000 м
[Cu hum Ci fib]
+17.2 +11.5 69 +18 +18 1011.1 997.7
03 13.08 З 2-3
{3}
10 км 8/6 1000 м
[Cu med, cong Ac trans Ci]
+16.8 +11.7 72 +17 +17 1011.6 998.2 +16.7
06 13.08 З 3-5
{5}
10 км 4/0
[Ci]
+21.6 +12.2 55 +24 +29 комфорт 1010.7 997.6
09 13.08 З 6-10
{11}
10 км 8/4 1000 м
[Cu hum Ci fib]
+24.0 +6.4 32 +24 +27 комфорт 1010.3 997.3
12 13.08 З 5-9
{11}
10 км 9/6 1000 м
[Cu hum Ci]
+24.4 +5.6 30 +24 +26 комфорт 1010.0 997.0
15 13.08 З 5-7
{11}
10 км 10/4 600 м
[Cu hum Ac trans]
+22.4 +6.4 35 +23 +23 комфорт 1009.3 996.2 +24.4
18 13.08 З 2-4
{10}
10 км 4/0
[Ci fib]
+17.9 +7.1 49 +18 +18 1010.1 996.8
21 13.08 З 3-5
{6}
10 км 3/0
[Cs]
+16.0 +7.6 57 +16 +16 1010.4 997.0
00 14.08 З 2-3
{5}
10 км 3/0
[Cs]
+14.9 +8.6 66 +15 +15 1010.8 997.4
03 14.08 З 2-4
{4}
10 км 6/0
[Ac trans]
+14.7 +9.7 72 +14 +15 1011.6 998.1 +14.6
06 14.08 З 3-3
{4}
10 км 3/3 1000 м
[Cu hum]
+18.3 +10.7 61 +19 +23 1013.2 1000.0
09 14.08 СЗ 4-7
{9}
10 км 8/8 600 м
[Cb cap]
+21.9 +10.2 47 +24 +25 комфорт 1014.2 1001.1
12 14.08 СЗ 3-6
{8}
10 км 6/6 600 м
[Cu hum]
+23.7 +6.4 33 +24 +27 комфорт 1013.4 1001.2
15 14.08 СЗ 3-4
{5}
10 км 3/3 600 м
[Cu hum]
+23.0 +5.9 33 +23 +24 комфорт 1014.3 1001.2 +23.7
18 14.08 З 1-1
{6}
10 км ясно +14.3 +8.4 68 +15 +15 1015.1 1001.6
21 14.08 Ю 1-2
{3}
10 км ясно +11.7 +8.6 81 +12 +12 1016.2 1002.5
00 15.08 Ю 1-2
{3}
10 км ясно +10.9 +8.2 83 +11 +11 1016.5 1002.7
03 15.08 Ю 1-2
{3}
10 км 4/0
[Ci fib]
+11.1 +8.5 84 +11 +11 1017.2 1003.4 +10.8
06 15.08 Ю 2-4
{4}
10 км 4/0
[Ci fib]
+21.6 +10.0 48 +23 +30 комфорт 1016.0 1002.9
09 15.08 ЮЗ 4-9
{9}
10 км 8/0
[Ac trans Ci fib]
+26.3 +9.7 35 +27 +31 жарко 1014.9 1001.9
12 15.08 З 4-8
{15}
4000 м ливневой дождь 10/10 400 м
[Cb cap]
+20.0 +16.7 81 +23 +23 комфорт 1013.5 1000.3
15 15.08 З 1-2
{7}
10 км 8/8 600 м
[Cb cap]
+21.0 +17.1 78 +26 +26 душно 1013.1 1000.0 +26.3 3
18 15.08 Ю 2-5
{5}
10 км {ливн. осадки} 8/8 600 м
[Cb cap]
+20.2 +15.3 73 +23 +23 комфорт 1011.6 998.4
21 15.08 ЮЗ 1-2
{10}
10 км слабый ливневой дождь 9/9 600 м
[Cb cap]
+17.9 +15.9 88 +19 +19 1011.5 998.2
00 16.08 ЮЗ 2-4
{5}
10 км {ливн. осадки} 8/8 600 м
[Cb cap]
+17.8 +16.3 91 +18 +18 1011.8 998.5
03 16.08 З 3-5
{5}
10 км 8/0
[Ac trans Ci fib]
+18.1 +16.4 90 +18 +19 1012.0 998.7 +17.7 2
06 16.08 З 3-5
{5}
10 км 9/0
[Ac trans Cs]
+20.8 +13.2 62 +24 +26 комфорт 1013.1 999.9
09 16.08 З 5-8
{8}
10 км 8/6 1000 м
[Cu med, cong Ci]
+23.6 +14.9 58 +26 +29 жарко 1013.9 1000.8
12 16.08 СЗ 4-8
{8}
10 км 9/9 600 м
[Cb cap]
+22.5 +15.3 64 +26 +27 жарко 1014.4 1001.3
15 16.08 С 5-8
{8}
10 км 8/8 600 м
[Cb cap]
+21.7 +14.0 62 +25 +25 комфорт 1015.4 1002.3 +23.6
18 16.08 С 3-5
{10}
10 км {дождь} 8/8 600 м
[Sc]
+17.2 +13.6 79 +17 +17 1017.8 1004.4
21 16.08 С 2-4
{5}
10 км 8/0
[Ac As]
+15.2 +12.8 86 +15 +15 1019.3 1005.7
00 17.08 С 2-2
{5}
10 км ясно +11.7 +10.6 93 +10 +10 1020.7 1007.0
03 17.08 С 3-4
{4}
2000 м дымка 10/10 180 м
[St]
+11.9 +11.1 95 +10 +10 1022.3 1008.6 +11.6 0.0
06 17.08 СВ 2-4
{4}
10 км ясно +17.8 +12.0 69 +18 +25 1021.4 1008.1
09 17.08 СВ 4-6
{7}
10 км 6/6 1000 м
[Cb cap]
+22.2 +10.4 47 +24 +27 комфорт 1022.0 1008.7
12 17.08 н/о +22.2
15 17.08 СВ 4-6
{7}
10 км 6/4 1000 м
[Cb cap Ci ing]
+11.4 +8.2 81 +9 +10 1022.4 1009.0 +22.2
18 17.08 СВ 2-2
{7}
10 км ясно +14.8 +9.2 69 +15 +15 1022.8 1009.2
21 17.08 С 2-2
{3}
10 км ясно +11.5 +8.6 82 +10 +10 1023.1 1009.3

 

Местоположение метеостанции Выкса (Нижегородская область, Россия): широта 55.33 долгота 42.12 высота над уровнем моря 114 м.

В архиве по умолчанию представлена погода в Выксе за последнюю неделю. Архивные данные за месяц целиком и за предыдущие месяцы, начиная с января 2011 года, Вы можете получить, выбрав интересующий диапазон дат из раскрывающегося списка и нажав кнопку "Ввод!".


*Определитесь, кто Вы:
робот инопланетянин человек

Внимание! Время в таблицах - всемирное. Для получения местного времени необходимо прибавить поправку, которая в Выксе равна 3 ч.

Смотрите также архив погоды в соседних городах и на ближайших метеорологических станциях:

Погода в Муроме (Владимирская область, Россия) (31 км)
Погода в Елатьме (Рязанская область, Россия) (48 км)
Погода в Павлово (Нижегородская область, Россия) (90 км)
Погода в Вязниках (Владимирская область, Россия) (97 км)
Погода в Гусь-Хрустальный (Владимирская область, Россия) (97 км)
Погода в Туме (Рязанская область, Россия) (102 км)
Погода в Арзамасе (Нижегородская область, Россия) (105 км)
Погода в Темникове (Мордовия, Россия) (105 км)
Погода в Сасово (Рязанская область, Россия) (109 км)
Погода в Коврове (Владимирская область, Россия) (124 км)

Пояснения к столбцам:

Ветер - указаны скорость ветра в м/с - средняя за 10 мин, порывы в срок и между сроками (в фигурных скобках) и направление, откуда дует ветер: С - северный, СВ - северо-восточный, В - восточный, ЮВ - юго-восточный, Ю - южный, ЮЗ - юго-западный, З - западный, СЗ - северо-западный.
Видимость - горизонтальная дальность видимости в метрах или километрах. При видимости от 1 до 10 км при отсутствии осадков обычно наблюдается дымка, при ухудшении видимости до 1 км и менее - туман. В сухую погоду видимость может ухудшаться дымом, пылью или мглою.
Явления - указаны атмосферные явления, наблюдавшиеся в срок или в последний час перед сроком; фигурными скобками обозначены явления, наблюдавшиеся между сроками (за 1-3 часа до срока); квадратными скобками обозначены град или гололедные отложения с указанием их диаметра в мм.
Облачность - указаны через наклонную черту общая и нижняя облачность в баллах и высота нижней границы облаков в метрах; квадратными скобками обозначены формы облаков: Ci - перистые, Cs - перисто-слоистые, Cc - перисто-кучевые, Ac - высококучевые, As - высокослоистые, Sc - слоисто-кучевые, Ns - слоисто-дождевые, Cu - кучевые, Cb - кучево-дождевые. Подробнее классификацию облаков см. в Атласе облаков (PDF).
T - Температура воздуха - температура, измеренная на высоте 2 м над землей.
Td - Температура точки росы - температура, при понижении до которой содержащийся в воздухе водяной пар достигнет насыщения.
f - Относительная влажность воздуха - влажноcть воздуха, измеренная на высоте 2 м над землей.
Te - Эффективная температура - температура, которую ощущает одетый по сезону человек в тени. Характеристика душности погоды. При расчете учитывается влияние влажности воздуха и скорости ветра на теплоощущения человека.
Tes - Эффективная температура на солнце - температура, которую ощущает человек, с поправкой на солнечный нагрев. Характеристика знойности погоды. Зависит от высоты солнца над горизонтом, облачности и скорости ветра. Ночью, в пасмурную погоду, а также при ветре 12 м/с и более поправка равна нулю.
P - Атмосферное давление - приведенное к уровню моря атмосферное давление.
Po - Атмосферное давление - измеренное на уровне метеостанции атмосферное давление.
Tmin - Минимальная температура - минимум температуры воздуха на высоте 2 м над землей.
Tmax - Максимальная температура - максимум температуры воздуха на высоте 2 м над землей.
R - Количество осадков - Количество выпавших осадков за период времени, мм. При наведении курсора мыши на число - период времени, за который выпало указанное количество осадков.
R24 - Количество осадков - Количество выпавших осадков за 24 часа, мм.
S - Снежный покров - Высота снежного покрова, см. При наведении курсора мыши на число - состояние снежного покрова и степень покрытия местности в баллах.